Regional Weather Roundup
Issued by NWS Newport/Morehead, NC

Current Version | Previous Version | Graphics & Text | Print | Product List | Glossary Off
Versions: 1 2 3 4 5 6 7 8 9 10 11 12 13 14 15 16 17 18 19 20 21 22 23 24 25 26 27 28 29 30 31 32 33 34 35 36 37 38 39 40 41 42 43 44 45 46 47 48 49 50

000
ASUS42 KMHX 271225
RWRMHX
WEATHER ROUNDUP FOR EASTERN NORTH CAROLINA
NATIONAL WEATHER SERVICE NEWPORT/MOREHEAD CITY NC
800 AM EDT TUE JUN 27 2017

NOTE: "FAIR" INDICATES FEW OR NO CLOUDS BELOW 12,000 FEET
WITH NO SIGNIFICANT WEATHER AND/OR OBSTRUCTIONS TO VISIBILITY

NCZ015>017-031-032-045>047-102-103-271300-
NORTH COAST

CITY           SKY/WX    TMP DP  RH WIND       PRES   REMARKS
EDENTON        SUNNY     78  65  63 CALM      30.03R
ELIZABETH CITY MOSUNNY   75  69  81 SW5       30.02S
KITTY HAWK     SUNNY     76  67  73 CALM      30.01S
MANTEO         SUNNY     74  67  78 W6        30.03S

$$

NCZ045>047-081-094-103-104-271300-
CENTRAL COAST

CITY           SKY/WX    TMP DP  RH WIND       PRES   REMARKS
FRISCO         MOSUNNY   77  70  79 CALM      30.02R

$$

NCZ095-097-098-100-101-271300-
SOUTHERN COAST

CITY           SKY/WX    TMP DP  RH WIND       PRES   REMARKS
BEAUFORT       CLOUDY    75  71  87 NW5       30.02S
CEDAR ISLAND   NOT AVBL
JACKSONVILLE   SUNNY     71  67  87 W3        30.03R
PINEY ISLAND   MOSUNNY  N/A N/A N/A CALM      30.02R
WILMINGTON     SUNNY     74  66  76 CALM      30.03R


$$

NCZ011>013-027>030-043-044-078>080-089-090>093-098-271300-
COASTAL PLAIN

CITY           SKY/WX    TMP DP  RH WIND       PRES   REMARKS
AHOSKIE          N/A     69  64  85 CALM      30.03R
CLINTON        CLOUDY    68  65  90 CALM      30.04R
ELIZABETHTOWN  NOT AVBL
GOLDSBORO      SUNNY     71  68  89 CALM      30.01S
GREENVILLE     SUNNY     73  64  73 CALM      30.04S
HAVELOCK       MOSUNNY   73  67  81 NW3       30.04R
KENANSVILLE    MOSUNNY   70  64  83 SW3       30.04R
KINSTON        SUNNY     72  64  78 SW3       30.04R
NEW BERN       SUNNY     74  67  78 CALM      30.04R
RICHLANDS      SUNNY     73  66  78 SW3         N/A
ROCKY MOUNT    MOSUNNY   72  62  71 NW3       30.03S
WASHINGTON     SUNNY    N/A N/A N/A SW6       30.03S
WHITEVILLE     SUNNY     71  65  79 CALM      30.03S

$$

AMZ130-135-150-152-154-156-158-170-250-252-270-ANZ085-086-088-633-658-670-271300-
MARINE OBSERVATIONS

STATION/POSITION TIME  TEMP    WIND        PRES    WAVE   SWELL
                       AIR SEA DIR/SP/G            HT/PER HT/PER
                 (UTC) (F)     (DEG/KT/KT) (MB)    (FT/S) (FT/S)
CHESAPEAKE LIGHT NOT AVBL
64 E VA BEACH    1150   73 73  170/  4/  4 1016.9    2/ 5   2/ 5
DUCK             1200   76 71  260/  4/  6 1016.2
2 E DUCK         NOT AVBL
OREGON INLET     1200   78 74  260/  4/  5 1016.5
13E OREGON INLT  1148      73                N/A     2/ 9   2/ 9
HATTERAS CG      1200   77 77  340/  4/  4 1016.4
DIAMOND BUOY     1150   78 81   10/  8/ 10 1016.2    2/ 8   2/ 8
CAPE LOOKOUT     1200   75     350/  5/  6 1016.4
BEAUFORT LAB     1200   74 78  340/  2/  5 1016.0
30 SE NEW RVR IN 1208   77 80  340/  6/  8 1016.8
30 SE NEW RVR IN 1213      80                N/A     2/ 6
27 SE WRIGHTSVLE 1208   77 80  340/  8/ 12 1016.2
5 SE WRIGHTSVLE  1208   76 79  310/  8/ 10 1016.7
225 S CAPE HAT   1150   76 80  250/ 16/ 19 1016.6    4/ 6   2/10
41 SE CHARLESTON 1210   79 81   20/ 10/ 10 1016.5

$$




USA.gov is the U.S. government's official web portal to all federal, state and local government web resources and services.